FW9150 Weather Reports


time (UTC)temp
C
wind
direction
speed
KPH
gust
KPH
rain 1hr
cm
rain 24hr
cm
rain mn
cm
humidity
%
barometer
mb
20260502184221 18 162 6.4 11.3 0.00 0.00 0.00 43 1019.7
20260502183222 18 225 4.8 9.7 0.00 0.00 0.00 42 1020.1
20260502181222 19 202 1.6 4.8 0.00 0.00 0.00 40 1019.7
20260502180220 19 164 3.2 8.0 0.00 0.00 0.00 40 1019.7
20260502170419 18 135 0.0 0.0 0.00 0.00 0.00 40 1019.9
20260502163422 17 164 4.8 6.4 0.00 0.00 0.00 42 1019.9
20260502162420 17 207 1.6 1.6 0.00 0.00 0.00 41 1019.9
20260502161421 16 225 3.2 6.4 0.00 0.00 0.00 43 1019.9
20260502151519 11 157 0.0 1.6 0.00 0.00 0.00 69 1019.7
20260502150521 11 157 0.0 0.0 0.00 0.00 0.00 70 1019.7
20260502130722 10 157 0.0 0.0 0.00 0.00 0.00 66 1018.9
20260502122821 10 157 0.0 0.0 0.00 0.00 0.00 66 1018.9
20260502121820 10 157 0.0 0.0 0.00 0.00 0.00 67 1018.9
20260502120821 10 157 0.0 0.0 0.00 0.00 0.00 68 1019.1
20260502115821 10 157 0.0 0.0 0.00 0.00 0.00 69 1019.0
20260502114820 10 157 0.0 0.0 0.00 0.00 0.00 70 1019.2
20260502113919 10 157 0.0 0.0 0.00 0.00 0.00 71 1019.2
20260502112920 10 157 0.0 0.0 0.00 0.00 0.00 72 1019.2
20260502111922 10 157 0.0 0.0 0.00 0.00 0.00 73 1019.3
20260502111020 10 157 0.0 0.0 0.00 0.00 0.00 73 1019.3
20260502110119 10 157 0.0 0.0 0.00 0.00 0.00 74 1019.4
20260502105120 10 157 0.0 0.0 0.00 0.00 0.00 74 1019.4
20260502104122 10 157 0.0 0.0 0.00 0.00 0.00 75 1019.3
20260502103219 10 157 0.0 0.0 0.00 0.00 0.00 76 1019.4
20260502101223 10 157 0.0 0.0 0.00 0.00 0.00 77 1019.3
20260502100220 10 157 0.0 0.0 0.00 0.00 0.00 78 1019.3
20260502091420 10 157 0.0 0.0 0.00 0.00 0.00 78 1019.7
20260502070820 10 157 0.0 0.0 0.00 0.00 0.00 79 1020.0
20260502065829 10 157 0.0 0.0 0.00 0.00 0.00 78 1020.3
20260502064829 10 157 0.0 0.0 0.00 0.00 0.00 78 1020.3
20260502063928 10 157 0.0 0.0 0.00 0.00 0.00 78 1020.3
20260502062929 10 157 0.0 0.0 0.00 0.00 0.00 79 1020.3
20260502060930 10 157 0.0 0.0 0.00 0.00 0.00 77 1020.5
20260502055929 10 157 0.0 0.0 0.00 0.00 0.00 77 1020.5
20260502054931 10 157 0.0 0.0 0.00 0.00 0.00 77 1020.5
20260502051931 10 157 0.0 0.0 0.00 0.00 0.00 76 1020.6
20260502050028 10 157 0.0 0.0 0.00 0.00 0.00 75 1020.6
20260502045029 10 157 0.0 0.0 0.00 0.00 0.00 75 1020.6
20260502043029 11 157 0.0 0.0 0.00 0.00 0.00 73 1020.6
20260502042029 11 157 0.0 0.0 0.00 0.00 0.00 74 1020.5
20260502041128 11 157 0.0 0.0 0.00 0.00 0.00 74 1020.5
20260502040129 11 157 0.0 0.0 0.00 0.00 0.00 73 1020.3
20260502033230 12 157 0.0 0.0 0.00 0.00 0.00 72 1020.0
20260502032229 12 157 0.0 0.0 0.00 0.00 0.00 70 1020.0
20260502031229 13 157 0.0 0.0 0.00 0.00 0.00 68 1020.1
20260502030229 13 157 0.0 0.0 0.00 0.00 0.00 67 1020.0
20260502025231 13 157 0.0 0.0 0.00 0.00 0.00 66 1019.9
20260502024228 14 157 0.0 0.0 0.00 0.00 0.00 65 1019.9
20260502023229 14 157 0.0 0.0 0.00 0.00 0.00 61 1020.0
20260502022229 15 157 0.0 0.0 0.00 0.00 0.00 59 1019.8
20260502021229 15 157 0.0 0.0 0.00 0.00 0.00 57 1019.9
20260502015228 15 157 0.0 0.0 0.00 0.00 0.00 55 1020.0
20260502014229 16 157 0.0 0.0 0.00 0.00 0.00 55 1020.0
20260502013229 16 157 0.0 0.0 0.00 0.00 0.00 55 1019.9
20260502012230 16 157 0.0 1.6 0.00 0.00 0.00 55 1020.0
20260502011327 16 157 0.0 1.6 0.00 0.00 0.00 57 1020.0
20260502010330 16 168 3.2 4.8 0.00 0.00 0.00 57 1020.0
20260502005429 17 157 3.2 6.4 0.00 0.00 0.00 56 1020.0
20260502004429 17 135 0.0 0.0 0.00 0.00 0.00 56 1020.0
20260502003429 17 165 1.6 4.8 0.00 0.00 0.00 56 1020.0
20260502002430 17 193 0.0 3.2 0.00 0.00 0.00 53 1019.9
20260502001445 17 172 0.0 1.6 0.00 0.00 0.00 54 1019.9
20260502000446 17 135 0.0 0.0 0.00 0.00 0.00 54 1020.0
20260501235528 18 246 0.0 1.6 0.00 0.00 0.00 54 1020.0
20260501234530 18 135 0.0 0.0 0.00 0.00 0.00 54 1019.9
20260501233546 18 225 0.0 0.0 0.00 0.00 0.00 55 1020.0
20260501232629 18 67 0.0 0.0 0.00 0.00 0.00 55 1019.9
20260501231630 18 157 1.6 4.8 0.00 0.00 0.00 56 1019.9
20260501230630 18 138 0.0 4.8 0.00 0.00 0.00 55 1020.0
20260501225629 18 190 0.0 8.0 0.00 0.00 0.00 56 1020.1
20260501224628 18 326 0.0 0.0 0.00 0.00 0.00 55 1020.1
20260501223628 18 200 1.6 3.2 0.00 0.00 0.00 55 1020.3
20260501222629 18 267 0.0 3.2 0.00 0.00 0.00 53 1020.4
20260501221629 18 215 0.0 0.0 0.00 0.00 0.00 51 1020.6
20260501220631 19 162 1.6 6.4 0.00 0.00 0.00 51 1020.5
20260501215630 19 161 1.6 4.8 0.00 0.00 0.00 50 1020.5
20260501214728 19 165 3.2 6.4 0.00 0.00 0.00 50 1020.6
20260501212730 18 180 0.0 1.6 0.00 0.00 0.00 50 1020.9
20260501211829 18 76 0.0 1.6 0.00 0.00 0.00 49 1020.8
20260501210829 18 188 0.0 3.2 0.00 0.00 0.00 47 1020.9
20260501205829 20 315 0.0 0.0 0.00 0.00 0.00 45 1020.7
20260501204830 20 222 1.6 3.2 0.00 0.00 0.00 41 1020.6
20260501203829 21 199 0.0 3.2 0.00 0.00 0.00 35 1020.6
20260501203729 21 157 0.0 3.2 0.00 0.00 0.00 36 1020.7
20260501202729 21 182 1.6 8.0 0.00 0.00 0.00 36 1020.7
20260501201729 20 157 0.0 4.8 0.00 0.00 0.00 36 1020.7
20260501200828 20 221 1.6 4.8 0.00 0.00 0.00 35 1020.9
20260501195831 20 325 0.0 0.0 0.00 0.00 0.00 33 1020.8
20260501194829 20 179 1.6 4.8 0.00 0.00 0.00 33 1021.1
20260501193828 20 157 0.0 0.0 0.00 0.00 0.00 33 1021.0
20260501192928 21 157 0.0 1.6 0.00 0.00 0.00 31 1020.9
20260501191929 21 254 0.0 1.6 0.00 0.00 0.00 30 1021.1
20260501190929 21 162 3.2 4.8 0.00 0.00 0.00 28 1021.1
20260501185931 22 157 0.0 4.8 0.00 0.00 0.00 27 1021.3
20260501184934 22 180 0.0 3.2 0.00 0.00 0.00 26 1021.3